Location: Bruderhein
(53.8035°N, 112.9265°W)
Time: 22:59:31
(UTC+00:00)

Gurwin Techsat 1B - Pass Details

Date: 20 April 2024
Orbit: 811 x 812 km, 98.9° (Epoch: 26 May)

Event Time Altitude Azimuth Distance (km) Brightness Sun altitude
Rises 10:21:11 0° 22° (NNE) 3,350 13.2 -15.1°
Reaches altitude 10° 10:23:48 10° 32° (NNE) 2,414 12.4 -14.8°
Maximum altitude 10:28:31 31° 94° (E) 1,400 10.3 -14.4°
Drops below altitude 10° 10:33:11 10° 156° (SSE) 2,397 10.9 -13.9°
Sets 10:35:46 0° 167° (SSE) 3,324 11.5 -13.6°
